Printer-friendly version
Follow the MPC on Twitter Follow the MPC on Facebook The MPC blog
Minor Planet Center

MPEC 2009-K75 : 2009 KL8

The following Minor Planet Electronic Circular may be linked-to from your own Web pages, but must not otherwise be redistributed electronically.

A form allowing access to any MPEC is at the bottom of this page.


Read MPEC 2009-K74 Read MPEC 2009-K76


M.P.E.C. 2009-K75                                Issued 2009 May 30, 21:55 UT

     The Minor Planet Electronic Circulars contain information on unusual
         minor planets and routine data on comets.  They are published
   on behalf of Commission 20 of the International Astronomical Union by the
          Minor Planet Center, Smithsonian Astrophysical Observatory,
                          Cambridge, MA 02138, U.S.A.

             Prepared using the Tamkin Foundation Computer Network

                              MPC@CFA.HARVARD.EDU
          URL http://www.cfa.harvard.edu/iau/mpc.html  ISSN 1523-6714

                                   2009 KL8

Observations:
     K09K08L* C2009 05 30.38423 16 49 07.03 +44 45 25.7          18.2 V EK075703
     K09K08L  C2009 05 30.39157 16 49 22.83 +44 50 01.1          18.1 V EK075703
     K09K08L  C2009 05 30.39879 16 49 38.46 +44 54 32.9          18.0 V EK075703
     K09K08L  C2009 05 30.40615 16 49 54.55 +44 59 10.9          18.1 V EK075703
     K09K08L  C2009 05 30.43536 16 50 58.44 +45 17 09.7          17.6 R EK075H01
     K09K08L  C2009 05 30.43610 16 51 01.33 +45 17 59.8          17.7 V EK075703
     K09K08L  C2009 05 30.43648 16 51 02.19 +45 18 14.6          18.1 V EK075703
     K09K08L  C2009 05 30.43686 16 51 03.06 +45 18 27.2          17.9 V EK075703
     K09K08L  C2009 05 30.43716 16 51 03.74 +45 18 40.3          17.9 V EK075703
     K09K08L  C2009 05 30.43925 16 51 07.32 +45 19 36.2          17.8 R EK075H01
     K09K08L  C2009 05 30.44175 16 51 13.05 +45 21 10.8          17.1 R EK075H01
     K09K08L  C2009 05 30.44471 16 51 19.87 +45 23 02.8          17.2 R EK075H01
     K09K08L  C2009 05 30.44727 16 51 25.82 +45 24 39.8          17.1 R EK075H01
     K09K08L  C2009 05 30.45403 16 51 42.51 +45 29 20.0          17.9 V EK075703
     K09K08L  C2009 05 30.45441 16 51 43.34 +45 29 33.5          18.2 V EK075703
     K09K08L  C2009 05 30.45470 16 51 44.06 +45 29 45.3          18.0 V EK075703
     K09K08L  C2009 05 30.45508 16 51 44.92 +45 29 59.1          18.1 V EK075703
     K09K08L  C2009 05 30.89026 17 14 54.68 +50 37 34.2                 EK075J95
     K09K08L  C2009 05 30.89202 17 15 01.05 +50 38 57.0                 EK075J95
     K09K08L  C2009 05 30.89393 17 15 07.95 +50 40 26.8          17.8 R EK075J95

Observer details:
703 Catalina Sky Survey.  Observer R. A. Kowalski.  Measurers E. C. Beshore,
    A. Boattini, G. J. Garradd, A. R. Gibbs, A. D. Grauer, R. E. Hill,
    R. A. Kowalski, S. M. Larson, R. H. McNaught.  0.68-m Schmidt + CCD.
H01 Magdalena Ridge Observatory, Socorro.  Observer W. H. Ryan.  2.4-m f/8.9
    reflector + CCD.
J95 Great Shefford.  Observer P. Birtwhistle.  0.40-m f/6.0 Schmidt-Cassegrain
    + CCD.

Orbital elements:
2009 KL8                                                 Earth MOID = 0.0125 AU
Epoch 2009 June 18.0 TT = JDT 2455000.5                 MPC
M 351.03114              (2000.0)            P               Q
n   0.43973199     Peri.  222.48289     +0.47246929     +0.87092371
a   1.7126844      Node    76.12765     -0.76660873     +0.48175569
e   0.4711872      Incl.    8.00197     -0.43483770     +0.09697088
P   2.24           H   24.1           G   0.15           U   8
Residuals in seconds of arc
090530 703  0.9-  0.2-    090530 703  0.4+  1.3-    090530 703  0.5-  0.4-
090530 703  0.2-  0.2-    090530 703  0.4+  0.5+    090530 703  0.1-  0.3+
090530 703  0.0   0.3+    090530 H01  0.0   0.4-    090530 703  0.3-  0.3-
090530 703  0.5+  1.5+    090530 H01  0.1-  0.4-    090530 J95  0.9+  0.5+
090530 H01  0.2+  0.1+    090530 H01  0.2-  0.4-    090530 J95  0.1+  0.1+
090530 703  0.4+  0.1+    090530 H01  0.1+  0.3-    090530 J95  1.0-  0.6-
090530 703  0.3+  0.5+    090530 703  0.0   0.5+

Ephemeris:
2009 KL8                 a,e,i = 1.71, 0.47, 8                   q = 0.9057
Date    TT    R. A. (2000) Decl.     Delta      r     Elong.  Phase     V
2009 05 29.0  16 15.73   +33 39.1    0.0271   1.029   124.7    54.0    18.3
2009 05 29.5  16 24.44   +36 56.1    0.0243   1.027   121.4    57.4    18.2
2009 05 30.0  16 36.48   +40 58.8    0.0217   1.024   117.2    61.7    18.0
2009 05 30.5  16 54.07   +45 58.9    0.0192   1.021   112.0    67.0    17.9
2009 05 31.0  17 21.75   +52 04.3    0.0169   1.018   105.2    73.8    17.9
2009 05 31.5  18 09.43   +59 00.9    0.0151   1.016    96.7    82.5    17.9
2009 06 01.0  19 37.04   +65 15.5    0.0138   1.013    86.1    93.1    18.1
2009 06 01.5  21 52.40   +66 41.9    0.0132   1.011    74.1   105.1    18.6
2009 06 02.0  23 51.40   +60 57.2    0.0133   1.008    62.1   117.2    19.4
2009 06 02.5  00 59.60   +51 51.6    0.0143   1.005    51.6   127.7    20.4
2009 06 03.0  01 37.30   +42 56.7    0.0158   1.003    43.7   135.7    21.4

Timothy B. Spahr             (C) Copyright 2009 MPC           M.P.E.C. 2009-K75

Read MPEC 2009-K74 Read MPEC 2009-K76


MPEC number:

Enter an MPEC number in one of the following forms:

  • 1997-B01 (the full form)
  • J97B01 (the packed version of the full form)
  • B01 (the abbreviated form)

Valid HTML 4.01!